contact:dominique.lefevre@mio.osupytheas.fr, maurice.libes@osupytheas.fr, didier.mallarino@osupytheas.fr
Project:EMSO http://www.emso-fr.org/EMSO-France
Depth: 2436.0 m
Title:EMSO Ligure Ouest : Data MII capteur AQUADOPP
Date,Latitude,Longitude,X_East,Y_North,Z_Up,Amplitude_X,Amplitude_Y,Amplitude_Z,Batterie,SoundSpeed,Heading,Pitch,Roll,Pressure,TIS,Speed,Direction
, degrees North, degrees East, m.s-1, m.s-1,m.s-1, 1, 1, 1, Volt, m.s-1, degree, degree, degree, dbar, degree_C, m.s-1, degree
2021-01-17T00:04:03,42.805,6.029,0.026,-0.065,-0.004,108.0,106.0,103.0,13.4,1505.2,325.9,-0.7,1.8,2470.414,13.3,0.07,158.2
2021-01-17T00:07:03,42.805,6.029,0.016,-0.034,0.005,107.0,106.0,103.0,13.4,1505.3,327.7,-0.7,1.9,2470.44,13.31,0.037,154.8
2021-01-17T00:10:03,42.805,6.029,0.037,-0.068,0.0,106.0,107.0,102.0,13.3,1505.3,324.0,-0.7,1.8,2470.392,13.31,0.077,151.4
2021-01-17T00:13:03,42.805,6.029,0.021,-0.043,0.015,108.0,105.0,103.0,13.4,1505.3,326.5,-0.7,1.9,2470.38,13.31,0.047,154.0
2021-01-17T00:16:03,42.805,6.029,0.015,-0.073,0.008,106.0,107.0,103.0,13.4,1505.3,324.5,-0.7,1.9,2470.376,13.32,0.074,168.4
2021-01-17T00:19:03,42.805,6.029,0.04,-0.073,-0.017,107.0,108.0,103.0,13.4,1505.3,323.4,-0.7,1.8,2470.351,13.32,0.083,151.3
2021-01-17T00:22:03,42.805,6.029,0.043,-0.056,-0.002,108.0,106.0,104.0,13.4,1505.3,328.1,-0.7,1.8,2470.345,13.32,0.07,142.5
2021-01-17T00:25:03,42.805,6.029,0.022,-0.04,-0.004,106.0,106.0,104.0,13.4,1505.3,326.3,-0.7,1.8,2470.354,13.32,0.045,151.2
2021-01-17T00:28:03,42.805,6.029,0.062,-0.064,-0.015,108.0,106.0,105.0,13.4,1505.3,323.0,-0.7,1.9,2470.362,13.32,0.089,135.9
2021-01-17T00:31:03,42.805,6.029,0.038,-0.051,-0.022,107.0,108.0,104.0,13.4,1505.3,326.9,-0.7,1.8,2470.35,13.32,0.063,143.3
2021-01-17T00:34:03,42.805,6.029,0.027,-0.072,-0.004,107.0,106.0,104.0,13.4,1505.3,326.0,-0.7,1.8,2470.392,13.32,0.076,159.4
2021-01-17T00:37:03,42.805,6.029,0.051,-0.061,0.024,107.0,107.0,102.0,13.4,1505.3,323.2,-0.7,1.8,2470.382,13.32,0.079,140.1
2021-01-17T00:40:03,42.805,6.029,0.04,-0.065,-0.036,107.0,107.0,103.0,13.4,1505.3,322.9,-0.7,1.8,2470.363,13.32,0.076,148.4
2021-01-17T00:43:03,42.805,6.029,0.016,-0.05,0.018,107.0,107.0,103.0,13.4,1505.3,323.8,-0.7,1.8,2470.376,13.32,0.052,162.3
2021-01-17T00:46:03,42.805,6.029,0.034,-0.044,-0.034,106.0,106.0,103.0,13.4,1505.3,327.5,-0.7,1.8,2470.374,13.32,0.055,142.3
2021-01-17T00:49:03,42.805,6.029,0.026,-0.071,0.002,107.0,106.0,103.0,13.4,1505.3,323.5,-0.7,1.8,2470.358,13.32,0.075,159.9
2021-01-17T00:52:03,42.805,6.029,0.033,-0.052,0.021,106.0,106.0,103.0,13.4,1505.3,327.2,-0.7,1.9,2470.376,13.32,0.061,147.6
2021-01-17T00:55:03,42.805,6.029,0.044,-0.03,-0.003,108.0,106.0,103.0,13.4,1505.3,326.1,-0.7,1.8,2470.367,13.32,0.053,124.3
2021-01-17T00:58:03,42.805,6.029,0.021,-0.04,-0.013,107.0,107.0,104.0,13.4,1505.3,323.0,-0.7,1.8,2470.377,13.32,0.045,152.3
2021-01-17T01:04:03,42.805,6.029,0.007,-0.061,0.002,108.0,108.0,104.0,13.3,1505.2,325.4,-0.7,1.8,2470.378,13.3,0.061,173.5
2021-01-17T01:07:03,42.805,6.029,0.013,-0.057,-0.013,107.0,106.0,102.0,13.4,1505.3,324.7,-0.7,1.9,2470.383,13.31,0.058,167.2
2021-01-17T01:10:03,42.805,6.029,0.041,-0.061,-0.004,106.0,107.0,102.0,13.3,1505.3,325.0,-0.7,1.8,2470.336,13.31,0.073,146.1
2021-01-17T01:13:03,42.805,6.029,0.01,-0.043,0.005,107.0,107.0,103.0,13.4,1505.3,326.8,-0.7,1.8,2470.35,13.31,0.044,166.9
2021-01-17T01:16:03,42.805,6.029,0.054,-0.077,-0.016,107.0,106.0,103.0,13.4,1505.3,327.9,-0.7,1.8,2470.351,13.32,0.094,145.0
2021-01-17T01:19:03,42.805,6.029,0.035,-0.049,0.027,107.0,107.0,104.0,13.4,1505.3,323.4,-0.7,1.8,2470.345,13.32,0.06,144.5
2021-01-17T01:22:03,42.805,6.029,0.033,-0.052,0.007,107.0,107.0,102.0,13.3,1505.3,324.7,-0.7,1.8,2470.39,13.32,0.061,147.6
2021-01-17T01:25:03,42.805,6.029,0.01,-0.059,-0.001,106.0,107.0,104.0,13.3,1505.3,325.8,-0.7,1.8,2470.367,13.32,0.059,170.4
2021-01-17T01:28:03,42.805,6.029,0.014,-0.064,-0.003,107.0,106.0,103.0,13.4,1505.3,324.0,-0.7,1.9,2470.355,13.32,0.065,167.7
2021-01-17T01:31:03,42.805,6.029,0.032,-0.054,-0.01,108.0,105.0,104.0,13.4,1505.3,325.0,-0.7,1.8,2470.355,13.32,0.062,149.3
2021-01-17T01:34:03,42.805,6.029,0.038,-0.052,-0.016,106.0,107.0,103.0,13.4,1505.3,324.9,-0.7,1.8,2470.352,13.32,0.064,143.8
2021-01-17T01:37:03,42.805,6.029,0.037,-0.058,0.017,107.0,107.0,103.0,13.4,1505.3,327.6,-0.7,1.9,2470.322,13.32,0.068,147.5
2021-01-17T01:40:03,42.805,6.029,0.03,-0.068,-0.003,107.0,107.0,104.0,13.3,1505.3,326.2,-0.7,1.8,2470.3,13.32,0.074,156.2
2021-01-17T01:43:03,42.805,6.029,0.011,-0.063,-0.03,108.0,106.0,103.0,13.4,1505.3,325.1,-0.7,1.8,2470.334,13.32,0.063,170.1
2021-01-17T01:46:03,42.805,6.029,0.035,-0.049,0.005,107.0,107.0,103.0,13.3,1505.3,325.9,-0.7,1.8,2470.31,13.32,0.06,144.5
2021-01-17T01:49:03,42.805,6.029,0.014,-0.074,0.024,107.0,107.0,103.0,13.3,1505.3,327.1,-0.7,1.8,2470.278,13.32,0.075,169.3
2021-01-17T01:52:03,42.805,6.029,0.041,-0.05,0.0,105.0,107.0,103.0,13.4,1505.3,324.4,-0.7,1.8,2470.343,13.32,0.064,140.7
2021-01-17T01:55:03,42.805,6.029,0.033,-0.052,0.005,109.0,106.0,103.0,13.3,1505.3,326.1,-0.7,1.8,2470.338,13.32,0.061,147.6
2021-01-17T01:58:03,42.805,6.029,0.052,-0.042,0.027,107.0,107.0,103.0,13.4,1505.3,326.4,-0.7,1.8,2470.333,13.32,0.066,128.9
2021-01-17T02:04:03,42.805,6.029,0.03,-0.063,0.005,106.0,106.0,104.0,13.4,1505.2,326.9,-0.7,1.9,2470.346,13.3,0.069,154.5
2021-01-17T02:07:03,42.805,6.029,0.022,-0.077,0.037,106.0,106.0,104.0,13.4,1505.3,324.4,-0.7,1.9,2470.402,13.31,0.08,164.1
2021-01-17T02:10:03,42.805,6.029,0.013,-0.045,-0.005,107.0,107.0,103.0,13.4,1505.3,327.6,-0.7,1.8,2470.368,13.31,0.046,163.9
2021-01-17T02:13:03,42.805,6.029,0.03,-0.048,-0.002,104.0,106.0,103.0,13.4,1505.3,327.2,-0.7,1.8,2470.361,13.31,0.056,148.0
2021-01-17T02:16:03,42.805,6.029,0.02,-0.041,-0.023,106.0,107.0,102.0,13.4,1505.3,326.6,-0.7,1.8,2470.327,13.32,0.045,154.0
2021-01-17T02:19:03,42.805,6.029,0.043,-0.058,-0.003,107.0,106.0,102.0,13.4,1505.3,322.7,-0.7,1.8,2470.339,13.32,0.072,143.4
2021-01-17T02:22:03,42.805,6.029,0.039,-0.046,0.036,107.0,106.0,103.0,13.4,1505.3,324.7,-0.7,1.8,2470.341,13.32,0.06,139.7
2021-01-17T02:25:03,42.805,6.029,0.049,-0.06,-0.003,106.0,106.0,104.0,13.3,1505.3,325.4,-0.7,1.8,2470.347,13.32,0.077,140.8
2021-01-17T02:28:03,42.805,6.029,0.04,-0.055,0.009,106.0,106.0,103.0,13.3,1505.3,327.1,-0.7,1.8,2470.305,13.32,0.068,144.0
2021-01-17T02:31:03,42.805,6.029,0.01,-0.058,-0.004,106.0,107.0,103.0,13.3,1505.3,326.0,-0.6,1.8,2470.346,13.32,0.058,170.2
2021-01-17T02:34:03,42.805,6.029,0.055,-0.062,0.011,106.0,107.0,103.0,13.3,1505.3,324.0,-0.7,1.8,2470.308,13.32,0.082,138.4
2021-01-17T02:37:03,42.805,6.029,0.02,-0.045,-0.009,107.0,107.0,103.0,13.3,1505.3,325.4,-0.7,1.8,2470.294,13.32,0.049,156.0
2021-01-17T02:40:03,42.805,6.029,0.025,-0.049,0.002,106.0,106.0,103.0,13.4,1505.3,324.2,-0.7,1.8,2470.343,13.32,0.055,153.0
2021-01-17T02:43:03,42.805,6.029,0.019,-0.064,-0.014,108.0,106.0,103.0,13.4,1505.3,327.7,-0.7,1.8,2470.307,13.32,0.066,163.5
2021-01-17T02:46:03,42.805,6.029,0.03,-0.038,-0.004,105.0,106.0,102.0,13.3,1505.3,324.0,-0.7,1.9,2470.32,13.32,0.048,141.7
2021-01-17T02:49:03,42.805,6.029,0.051,-0.034,-0.012,108.0,106.0,102.0,13.3,1505.3,324.5,-0.7,1.8,2470.305,13.32,0.061,123.7
2021-01-17T02:52:03,42.805,6.029,0.024,-0.036,-0.027,106.0,107.0,103.0,13.4,1505.3,325.0,-0.7,1.8,2470.31,13.32,0.043,146.3
2021-01-17T02:55:03,42.805,6.029,0.032,-0.041,-0.017,107.0,105.0,102.0,13.3,1505.3,326.5,-0.7,1.8,2470.273,13.32,0.052,142.0
2021-01-17T02:58:03,42.805,6.029,0.054,-0.042,0.031,106.0,107.0,103.0,13.4,1505.3,327.2,-0.7,1.8,2470.297,13.32,0.068,127.9
2021-01-17T03:04:03,42.805,6.029,0.046,-0.045,-0.023,107.0,107.0,102.0,13.3,1505.2,323.0,-0.7,1.8,2470.327,13.3,0.064,134.4
2021-01-17T03:07:03,42.805,6.029,0.03,-0.06,-0.012,106.0,106.0,103.0,13.4,1505.3,323.2,-0.7,1.8,2470.296,13.31,0.067,153.4
2021-01-17T03:10:03,42.805,6.029,0.028,-0.074,0.008,106.0,106.0,103.0,13.4,1505.3,323.5,-0.7,1.8,2470.294,13.31,0.079,159.3
2021-01-17T03:13:03,42.805,6.029,0.056,-0.064,0.031,106.0,107.0,103.0,13.4,1505.3,322.8,-0.7,1.8,2470.291,13.31,0.085,138.8
2021-01-17T03:16:03,42.805,6.029,0.032,-0.046,0.028,107.0,106.0,103.0,13.4,1505.3,323.4,-0.7,1.8,2470.304,13.32,0.056,145.2
2021-01-17T03:19:03,42.805,6.029,0.041,-0.075,-0.025,106.0,105.0,102.0,13.3,1505.3,324.7,-0.7,1.8,2470.281,13.32,0.085,151.3
2021-01-17T03:22:03,42.805,6.029,0.033,-0.047,0.023,106.0,106.0,104.0,13.4,1505.3,326.4,-0.7,1.8,2470.278,13.32,0.057,144.9
2021-01-17T03:25:03,42.805,6.029,0.037,-0.058,0.0,106.0,107.0,103.0,13.4,1505.3,325.9,-0.7,1.8,2470.307,13.32,0.068,147.5
2021-01-17T03:28:03,42.805,6.029,0.04,-0.04,-0.012,106.0,107.0,104.0,13.4,1505.3,326.5,-0.7,1.8,2470.297,13.32,0.056,135.0
2021-01-17T03:31:03,42.805,6.029,0.029,-0.058,0.004,106.0,107.0,102.0,13.3,1505.3,326.5,-0.7,1.8,2470.29,13.32,0.064,153.4
2021-01-17T03:34:03,42.805,6.029,0.019,-0.058,0.0,106.0,106.0,103.0,13.4,1505.3,326.2,-0.7,1.8,2470.273,13.32,0.061,161.9
2021-01-17T03:37:03,42.805,6.029,0.058,-0.053,0.036,106.0,106.0,103.0,13.4,1505.3,324.4,-0.7,1.8,2470.288,13.32,0.078,132.4
2021-01-17T03:40:03,42.805,6.029,0.02,-0.053,0.018,107.0,107.0,102.0,13.4,1505.3,326.5,-0.7,1.9,2470.276,13.32,0.056,159.3
2021-01-17T03:43:03,42.805,6.029,0.019,-0.036,-0.024,106.0,106.0,103.0,13.3,1505.3,324.5,-0.7,1.8,2470.319,13.32,0.04,152.2
2021-01-17T03:46:03,42.805,6.029,0.055,-0.054,0.021,107.0,106.0,102.0,13.4,1505.3,324.5,-0.7,1.8,2470.286,13.32,0.077,134.5
2021-01-17T03:49:03,42.805,6.029,0.051,-0.055,-0.022,108.0,105.0,102.0,13.3,1505.3,327.9,-0.7,1.8,2470.279,13.32,0.075,137.2
2021-01-17T03:52:03,42.805,6.029,0.021,-0.04,-0.006,106.0,107.0,103.0,13.3,1505.3,322.9,-0.7,1.8,2470.302,13.32,0.045,152.3
2021-01-17T03:55:03,42.805,6.029,0.036,-0.061,0.019,107.0,107.0,103.0,13.3,1505.3,324.7,-0.7,1.8,2470.28,13.32,0.07,149.4
2021-01-17T03:58:03,42.805,6.029,0.03,-0.055,0.011,107.0,106.0,103.0,13.4,1505.3,327.1,-0.7,1.8,2470.278,13.32,0.062,151.4
2021-01-17T04:04:03,42.805,6.029,0.04,-0.056,-0.012,106.0,107.0,103.0,13.3,1505.2,325.4,-0.7,1.8,2470.315,13.3,0.068,144.5
2021-01-17T04:07:03,42.805,6.029,0.021,-0.064,-0.029,107.0,106.0,103.0,13.4,1505.3,324.3,-0.7,1.8,2470.291,13.31,0.067,161.8
2021-01-17T04:10:03,42.805,6.029,0.038,-0.047,0.002,106.0,106.0,102.0,13.4,1505.3,326.5,-0.7,1.8,2470.287,13.31,0.06,141.0
2021-01-17T04:13:03,42.805,6.029,0.024,-0.023,-0.002,107.0,107.0,102.0,13.3,1505.3,326.6,-0.7,1.8,2470.312,13.31,0.033,133.8
2021-01-17T04:16:03,42.805,6.029,0.042,-0.046,0.008,107.0,106.0,102.0,13.4,1505.3,324.5,-0.7,1.8,2470.313,13.32,0.062,137.6
2021-01-17T04:19:03,42.805,6.029,0.025,-0.071,-0.011,107.0,104.0,103.0,13.4,1505.3,327.1,-0.7,1.9,2470.273,13.32,0.075,160.6
2021-01-17T04:22:03,42.805,6.029,0.016,-0.05,0.001,106.0,106.0,103.0,13.3,1505.3,325.0,-0.7,1.8,2470.284,13.32,0.052,162.3
2021-01-17T04:25:03,42.805,6.029,0.009,-0.045,0.022,107.0,105.0,103.0,13.3,1505.3,323.5,-0.7,1.9,2470.263,13.32,0.045,168.7
2021-01-17T04:28:03,42.805,6.029,0.021,-0.049,0.0,106.0,107.0,102.0,13.4,1505.3,326.4,-0.7,1.8,2470.282,13.32,0.053,156.8
2021-01-17T04:31:03,42.805,6.029,0.013,-0.051,-0.008,107.0,105.0,103.0,13.4,1505.3,324.3,-0.7,1.8,2470.271,13.32,0.052,165.7
2021-01-17T04:34:03,42.805,6.029,0.029,-0.04,0.001,107.0,107.0,103.0,13.3,1505.3,326.8,-0.7,1.8,2470.261,13.32,0.049,144.1
2021-01-17T04:37:03,42.805,6.029,0.051,-0.05,0.018,106.0,107.0,104.0,13.4,1505.3,328.0,-0.7,1.8,2470.287,13.32,0.071,134.4
2021-01-17T04:40:03,42.805,6.029,0.042,-0.059,-0.016,107.0,106.0,103.0,13.4,1505.3,327.3,-0.7,1.8,2470.304,13.32,0.072,144.6
2021-01-17T04:43:03,42.805,6.029,0.018,-0.053,0.008,106.0,105.0,103.0,13.3,1505.3,327.0,-0.7,1.9,2470.299,13.32,0.055,161.2
2021-01-17T04:46:03,42.805,6.029,0.016,-0.04,-0.005,106.0,106.0,103.0,13.4,1505.3,327.2,-0.7,1.8,2470.304,13.32,0.043,158.2
2021-01-17T04:49:03,42.805,6.029,0.037,-0.034,0.006,106.0,107.0,103.0,13.4,1505.3,326.9,-0.6,1.8,2470.295,13.32,0.05,132.6
2021-01-17T04:52:03,42.805,6.029,0.042,-0.035,0.016,106.0,107.0,104.0,13.4,1505.3,327.9,-0.7,1.8,2470.336,13.32,0.054,129.8
2021-01-17T04:55:03,42.805,6.029,0.029,-0.04,0.018,107.0,107.0,102.0,13.4,1505.3,325.6,-0.7,1.9,2470.27,13.32,0.049,144.1
2021-01-17T04:58:03,42.805,6.029,0.03,-0.045,-0.029,107.0,107.0,103.0,13.4,1505.3,324.5,-0.7,1.8,2470.285,13.32,0.054,146.3
2021-01-17T05:04:03,42.805,6.029,0.045,-0.048,0.016,107.0,106.0,103.0,13.4,1505.2,326.3,-0.7,1.8,2470.294,13.3,0.065,136.9
2021-01-17T05:07:03,42.805,6.029,0.028,-0.048,0.011,106.0,107.0,103.0,13.4,1505.3,323.4,-0.7,1.9,2470.308,13.31,0.055,149.7
2021-01-17T05:10:03,42.805,6.029,0.028,-0.047,-0.005,107.0,107.0,103.0,13.4,1505.3,324.7,-0.7,1.8,2470.301,13.31,0.054,149.2
2021-01-17T05:13:03,42.805,6.029,0.011,-0.047,0.0,106.0,105.0,102.0,13.4,1505.3,323.6,-0.7,1.9,2470.283,13.31,0.048,166.8
2021-01-17T05:16:03,42.805,6.029,0.011,-0.035,-0.009,107.0,106.0,103.0,13.4,1505.3,325.7,-0.7,1.8,2470.278,13.32,0.036,162.6
2021-01-17T05:19:03,42.805,6.029,0.026,-0.038,-0.024,106.0,107.0,103.0,13.4,1505.3,324.0,-0.7,1.8,2470.317,13.32,0.046,145.6
2021-01-17T05:22:03,42.805,6.029,0.031,-0.053,-0.02,106.0,106.0,104.0,13.4,1505.3,326.8,-0.7,1.8,2470.286,13.32,0.061,149.7
2021-01-17T05:25:03,42.805,6.029,0.043,-0.055,-0.027,106.0,108.0,103.0,13.4,1505.3,325.7,-0.7,1.8,2470.292,13.32,0.069,142.0
2021-01-17T05:28:03,42.805,6.029,0.008,-0.037,-0.022,107.0,107.0,103.0,13.3,1505.3,325.1,-0.7,1.8,2470.333,13.32,0.037,167.8
2021-01-17T05:31:03,42.805,6.029,0.051,-0.033,0.005,106.0,107.0,103.0,13.4,1505.3,326.2,-0.7,1.8,2470.317,13.32,0.06,122.9
2021-01-17T05:34:03,42.805,6.029,0.058,-0.044,-0.024,106.0,107.0,102.0,13.3,1505.3,326.3,-0.7,1.8,2470.316,13.32,0.072,127.2
2021-01-17T05:37:03,42.805,6.029,0.019,-0.041,0.009,106.0,107.0,102.0,13.4,1505.3,325.5,-0.7,1.8,2470.312,13.32,0.045,155.1
2021-01-17T05:40:03,42.805,6.029,0.004,-0.039,-0.012,107.0,106.0,103.0,13.4,1505.3,327.7,-0.7,1.8,2470.302,13.32,0.039,174.1
2021-01-17T05:43:03,42.805,6.029,0.014,-0.046,0.008,105.0,107.0,104.0,13.4,1505.3,328.0,-0.7,1.8,2470.337,13.32,0.048,163.1
2021-01-17T05:46:03,42.805,6.029,0.042,-0.045,-0.002,107.0,106.0,103.0,13.4,1505.3,324.5,-0.7,1.8,2470.33,13.32,0.061,137.0
2021-01-17T05:49:03,42.805,6.029,0.024,-0.072,-0.007,106.0,106.0,103.0,13.4,1505.3,326.5,-0.7,1.8,2470.297,13.32,0.075,161.6
2021-01-17T05:52:03,42.805,6.029,0.024,-0.037,0.028,106.0,107.0,102.0,13.4,1505.3,326.1,-0.7,1.9,2470.288,13.32,0.044,147.0
2021-01-17T05:55:03,42.805,6.029,0.044,-0.029,-0.008,106.0,107.0,102.0,13.4,1505.3,328.2,-0.7,1.8,2470.294,13.32,0.052,123.4
2021-01-17T05:58:03,42.805,6.029,0.036,-0.047,0.029,106.0,106.0,103.0,13.4,1505.3,326.5,-0.7,1.8,2470.287,13.32,0.059,142.5
2021-01-17T06:04:03,42.805,6.029,0.037,-0.064,0.012,105.0,107.0,103.0,13.4,1505.2,325.7,-0.7,1.8,2470.399,13.3,0.073,150.0
2021-01-17T06:07:03,42.805,6.029,0.035,-0.026,0.036,106.0,106.0,103.0,13.4,1505.3,327.4,-0.7,1.8,2470.339,13.31,0.043,126.6
2021-01-17T06:10:03,42.805,6.029,0.0,-0.036,0.006,108.0,107.0,102.0,13.3,1505.3,328.1,-0.7,1.8,2470.388,13.31,0.036,180.0
2021-01-17T06:13:03,42.805,6.029,0.031,-0.039,0.007,106.0,107.0,104.0,13.4,1505.3,326.9,-0.7,1.8,2470.359,13.31,0.049,141.5
2021-01-17T06:16:03,42.805,6.029,0.013,-0.043,-0.012,106.0,107.0,103.0,13.4,1505.3,325.3,-0.7,1.8,2470.3,13.32,0.044,163.2
2021-01-17T06:19:03,42.805,6.029,0.047,-0.037,0.0,105.0,107.0,102.0,13.4,1505.3,326.9,-0.7,1.8,2470.369,13.32,0.059,128.2
2021-01-17T06:22:03,42.805,6.029,0.025,-0.023,-0.009,106.0,107.0,103.0,13.4,1505.3,323.0,-0.7,1.8,2470.359,13.32,0.033,132.6
2021-01-17T06:25:03,42.805,6.029,0.009,-0.034,-0.022,107.0,107.0,102.0,13.4,1505.3,323.0,-0.6,1.8,2470.362,13.32,0.035,165.2
2021-01-17T06:28:03,42.805,6.029,0.023,-0.053,-0.013,106.0,107.0,102.0,13.4,1505.3,327.7,-0.7,1.8,2470.388,13.32,0.057,156.5
2021-01-17T06:31:03,42.805,6.029,0.002,-0.044,0.023,106.0,107.0,103.0,13.4,1505.3,324.1,-0.7,1.8,2470.378,13.32,0.044,177.4
2021-01-17T06:34:03,42.805,6.029,0.04,-0.055,0.007,105.0,108.0,103.0,13.4,1505.3,326.5,-0.7,1.8,2470.352,13.32,0.068,144.0
2021-01-17T06:37:03,42.805,6.029,0.034,-0.045,0.019,106.0,106.0,102.0,13.4,1505.3,324.4,-0.7,1.8,2470.359,13.32,0.056,142.9
2021-01-17T06:40:03,42.805,6.029,0.04,-0.046,0.013,107.0,107.0,102.0,13.3,1505.3,324.3,-0.7,1.8,2470.348,13.32,0.06,139.0
2021-01-17T06:43:03,42.805,6.029,0.04,-0.039,-0.003,106.0,107.0,103.0,13.3,1505.3,325.8,-0.7,1.8,2470.377,13.32,0.055,134.3
2021-01-17T06:46:03,42.805,6.029,0.017,-0.04,0.014,107.0,106.0,102.0,13.4,1505.3,323.1,-0.7,1.8,2470.364,13.32,0.043,157.0
2021-01-17T06:49:03,42.805,6.029,0.03,-0.048,0.022,107.0,107.0,104.0,13.4,1505.3,324.4,-0.7,1.8,2470.372,13.32,0.056,148.0
2021-01-17T06:52:03,42.805,6.029,0.028,-0.03,0.036,107.0,108.0,103.0,13.4,1505.3,327.8,-0.7,1.8,2470.385,13.32,0.041,137.0
2021-01-17T06:55:03,42.805,6.029,0.044,-0.033,-0.004,106.0,107.0,103.0,13.4,1505.3,325.1,-0.7,1.8,2470.377,13.32,0.055,126.9
2021-01-17T06:58:03,42.805,6.029,0.027,-0.029,0.0,106.0,108.0,102.0,13.4,1505.3,326.5,-0.7,1.8,2470.365,13.32,0.039,137.0
2021-01-17T07:04:03,42.805,6.029,0.027,-0.043,-0.001,108.0,107.0,103.0,13.4,1505.2,328.2,-0.7,1.8,2470.397,13.3,0.05,147.9
2021-01-17T07:07:03,42.805,6.029,0.04,-0.05,0.001,107.0,106.0,102.0,13.4,1505.3,328.3,-0.7,1.8,2470.414,13.31,0.064,141.3
2021-01-17T07:10:03,42.805,6.029,0.046,-0.048,0.012,107.0,107.0,102.0,13.4,1505.3,326.1,-0.7,1.8,2470.409,13.31,0.066,136.2
2021-01-17T07:13:03,42.805,6.029,0.052,-0.045,-0.01,107.0,106.0,103.0,13.4,1505.3,324.3,-0.7,1.8,2470.432,13.32,0.068,130.9
2021-01-17T07:16:03,42.805,6.029,0.053,-0.043,-0.002,107.0,107.0,103.0,13.4,1505.3,323.0,-0.7,1.9,2470.437,13.32,0.068,129.1
2021-01-17T07:19:03,42.805,6.029,0.048,-0.034,0.037,105.0,107.0,103.0,13.3,1505.3,323.0,-0.7,1.8,2470.432,13.32,0.058,125.3
2021-01-17T07:22:03,42.805,6.029,0.034,-0.043,0.001,105.0,107.0,103.0,13.4,1505.3,326.8,-0.7,1.8,2470.45,13.32,0.054,141.7
2021-01-17T07:25:03,42.805,6.029,0.028,-0.044,0.013,107.0,106.0,103.0,13.4,1505.3,325.7,-0.7,1.8,2470.448,13.32,0.052,147.5
2021-01-17T07:28:03,42.805,6.029,0.019,-0.038,-0.031,106.0,108.0,103.0,13.4,1505.3,324.0,-0.7,1.8,2470.402,13.32,0.042,153.4
2021-01-17T07:31:03,42.805,6.029,0.03,-0.041,-0.032,106.0,108.0,102.0,13.4,1505.3,327.2,-0.7,1.8,2470.467,13.32,0.05,143.8
2021-01-17T07:34:03,42.805,6.029,0.03,-0.047,0.001,106.0,107.0,103.0,13.3,1505.3,323.3,-0.7,1.8,2470.432,13.32,0.055,147.4
2021-01-17T07:37:03,42.805,6.029,0.028,-0.042,0.006,107.0,106.0,103.0,13.4,1505.3,324.9,-0.7,1.9,2470.443,13.32,0.05,146.3
2021-01-17T07:40:03,42.805,6.029,0.048,-0.047,0.0,107.0,107.0,101.0,13.3,1505.3,326.3,-0.7,1.8,2470.447,13.32,0.067,134.4
2021-01-17T07:43:03,42.805,6.029,0.058,-0.023,-0.002,105.0,106.0,104.0,13.4,1505.3,324.2,-0.7,1.8,2470.428,13.32,0.062,111.6
2021-01-17T07:46:03,42.805,6.029,0.06,-0.046,0.027,106.0,107.0,103.0,13.4,1505.3,325.4,-0.7,1.8,2470.443,13.32,0.075,127.5
2021-01-17T07:49:03,42.805,6.029,0.034,-0.034,0.01,107.0,107.0,102.0,13.3,1505.3,325.8,-0.7,1.8,2470.444,13.32,0.048,135.0
2021-01-17T07:52:03,42.805,6.029,0.034,-0.025,0.018,106.0,106.0,103.0,13.4,1505.3,324.6,-0.7,1.8,2470.441,13.32,0.042,126.3
2021-01-17T07:55:03,42.805,6.029,0.018,-0.04,0.005,106.0,106.0,103.0,13.4,1505.3,327.8,-0.7,1.8,2470.453,13.32,0.043,155.8
2021-01-17T07:58:03,42.805,6.029,0.043,-0.058,-0.01,105.0,107.0,103.0,13.4,1505.3,323.0,-0.7,1.9,2470.492,13.32,0.072,143.4
2021-01-17T08:04:03,42.805,6.029,0.015,-0.039,-0.008,106.0,107.0,103.0,13.4,1505.2,324.7,-0.7,1.8,2470.562,13.3,0.041,159.0
2021-01-17T08:07:03,42.805,6.029,0.018,-0.052,-0.007,104.0,107.0,103.0,13.4,1505.3,326.4,-0.7,1.8,2470.497,13.31,0.055,160.9
2021-01-17T08:10:03,42.805,6.029,0.056,-0.041,0.002,106.0,106.0,103.0,13.4,1505.3,324.1,-0.7,1.8,2470.498,13.31,0.069,126.2
2021-01-17T08:13:03,42.805,6.029,0.048,-0.028,0.007,106.0,107.0,102.0,13.4,1505.3,324.6,-0.7,1.8,2470.503,13.32,0.055,120.3
2021-01-17T08:16:03,42.805,6.029,0.036,-0.037,0.037,105.0,106.0,102.0,13.4,1505.3,326.2,-0.7,1.8,2470.501,13.32,0.051,135.8
2021-01-17T08:19:03,42.805,6.029,0.017,-0.037,-0.011,106.0,105.0,103.0,13.4,1505.3,327.6,-0.7,1.9,2470.511,13.32,0.04,155.3
2021-01-17T08:22:03,42.805,6.029,0.053,-0.041,0.007,106.0,107.0,102.0,13.4,1505.3,326.3,-0.7,1.8,2470.495,13.32,0.067,127.7
2021-01-17T08:25:03,42.805,6.029,0.035,-0.018,0.007,106.0,106.0,102.0,13.3,1505.3,323.3,-0.7,1.8,2470.507,13.32,0.039,117.2
2021-01-17T08:28:03,42.805,6.029,0.058,-0.028,0.043,106.0,106.0,103.0,13.4,1505.3,326.5,-0.7,1.8,2470.492,13.32,0.064,115.8
2021-01-17T08:31:03,42.805,6.029,0.042,-0.057,-0.018,105.0,105.0,103.0,13.4,1505.3,324.0,-0.7,1.8,2470.48,13.32,0.07,143.6
2021-01-17T08:34:03,42.805,6.029,0.046,-0.068,-0.002,105.0,107.0,102.0,13.3,1505.3,325.8,-0.7,1.8,2470.543,13.32,0.082,145.9
2021-01-17T08:37:03,42.805,6.029,0.026,-0.015,-0.001,106.0,106.0,103.0,13.4,1505.3,326.5,-0.7,1.8,2470.498,13.32,0.03,120.0
2021-01-17T08:40:03,42.805,6.029,0.038,-0.036,0.019,105.0,106.0,102.0,13.4,1505.3,325.1,-0.7,1.8,2470.522,13.32,0.052,133.5
2021-01-17T08:43:03,42.805,6.029,0.039,-0.056,-0.018,106.0,106.0,102.0,13.4,1505.3,327.6,-0.7,1.8,2470.491,13.32,0.068,145.1
2021-01-17T08:46:03,42.805,6.029,0.031,-0.056,-0.014,105.0,105.0,103.0,13.4,1505.3,324.3,-0.7,1.8,2470.508,13.32,0.064,151.0
2021-01-17T08:49:03,42.805,6.029,0.043,-0.054,-0.042,106.0,106.0,102.0,13.4,1505.3,325.3,-0.7,1.8,2470.49,13.32,0.069,141.5
2021-01-17T08:52:03,42.805,6.029,0.039,-0.025,0.02,105.0,107.0,102.0,13.3,1505.3,327.8,-0.7,1.9,2470.513,13.32,0.046,122.7
2021-01-17T08:55:03,42.805,6.029,0.021,-0.037,-0.011,106.0,105.0,101.0,13.3,1505.3,327.4,-0.7,1.8,2470.501,13.32,0.042,150.4
2021-01-17T08:58:03,42.805,6.029,0.047,-0.056,-0.014,106.0,107.0,103.0,13.3,1505.3,327.8,-0.7,1.8,2470.494,13.32,0.073,140.0
2021-01-17T09:04:03,42.805,6.029,0.04,-0.049,0.006,105.0,106.0,103.0,13.4,1505.2,324.6,-0.7,1.8,2470.562,13.3,0.063,140.8
2021-01-17T09:07:03,42.805,6.029,0.035,-0.081,-0.039,106.0,107.0,103.0,13.4,1505.3,326.8,-0.8,1.8,2470.594,13.31,0.088,156.6
2021-01-17T09:10:03,42.805,6.029,0.047,-0.03,0.016,106.0,106.0,102.0,13.3,1505.3,324.5,-0.7,1.8,2470.578,13.31,0.055,122.6
2021-01-17T09:13:03,42.805,6.029,0.044,-0.05,-0.016,107.0,105.0,101.0,13.4,1505.3,327.9,-0.7,1.8,2470.571,13.31,0.066,138.7
2021-01-17T09:16:03,42.805,6.029,0.044,-0.055,0.008,105.0,106.0,101.0,13.4,1505.3,326.3,-0.7,1.8,2470.581,13.32,0.07,141.3
2021-01-17T09:19:03,42.805,6.029,0.067,-0.05,0.024,106.0,107.0,103.0,13.4,1505.3,327.0,-0.7,1.8,2470.557,13.32,0.083,126.7
2021-01-17T09:22:03,42.805,6.029,0.04,-0.037,0.009,106.0,106.0,102.0,13.3,1505.3,326.7,-0.7,1.8,2470.525,13.32,0.054,132.8
2021-01-17T09:25:03,42.805,6.029,0.044,-0.037,0.017,106.0,106.0,103.0,13.4,1505.3,326.7,-0.7,1.8,2470.521,13.32,0.057,130.1
2021-01-17T09:28:03,42.805,6.029,0.023,-0.017,0.031,106.0,107.0,102.0,13.4,1505.3,324.5,-0.7,1.8,2470.508,13.32,0.028,126.5
2021-01-17T09:31:03,42.805,6.029,0.05,-0.046,0.003,106.0,107.0,102.0,13.3,1505.3,324.8,-0.7,1.8,2470.554,13.32,0.067,132.6
2021-01-17T09:34:03,42.805,6.029,0.055,-0.046,0.006,106.0,106.0,102.0,13.4,1505.3,325.1,-0.8,1.8,2470.548,13.32,0.071,129.9
2021-01-17T09:37:03,42.805,6.029,0.036,-0.048,-0.005,105.0,106.0,102.0,13.4,1505.3,326.5,-0.7,1.8,2470.529,13.32,0.06,143.1
2021-01-17T09:40:03,42.805,6.029,0.048,-0.04,0.005,106.0,106.0,102.0,13.4,1505.3,325.9,-0.7,1.8,2470.58,13.32,0.062,129.8
2021-01-17T09:43:03,42.805,6.029,0.063,-0.037,0.025,106.0,106.0,102.0,13.3,1505.3,324.4,-0.7,1.8,2470.576,13.32,0.073,120.4
2021-01-17T09:46:03,42.805,6.029,0.049,-0.039,-0.024,105.0,105.0,102.0,13.4,1505.3,327.1,-0.7,1.8,2470.542,13.32,0.062,128.5
2021-01-17T09:49:03,42.805,6.029,0.029,-0.037,-0.003,106.0,105.0,103.0,13.3,1505.3,325.7,-0.7,1.9,2470.582,13.32,0.047,141.9
2021-01-17T09:52:03,42.805,6.029,0.051,-0.037,0.007,105.0,105.0,103.0,13.4,1505.3,324.0,-0.7,1.8,2470.501,13.32,0.063,126.0
2021-01-17T09:55:03,42.805,6.029,0.028,-0.046,0.006,105.0,107.0,102.0,13.4,1505.3,327.0,-0.7,1.8,2470.58,13.32,0.053,148.7